Osceola Municipal, IA

12:34 PM CDT on August 20, 2017 (GMT -0500)
Osceola Municipal

Weather History for KI75 - November, 2012

Change the Weather History Date:

Tuesday, November 27, 2012

  Actual Average (KCNC) Record (KCNC)
Temperature  
Mean Temperature 24 °F -  
Max Temperature 37 °F 40 °F 73 °F (1990)
Min Temperature 11 °F 23 °F 4 °F (1977)
Degree Days  
Heating Degree Days 41    
Moisture  
Dew Point 12 °F    
Average Humidity 61    
Maximum Humidity 81    
Minimum Humidity 35    
Precipitation  
Precipitation 0.00 in - - ()
Sea Level Pressure  
Sea Level Pressure 30.32 in    
Wind  
Wind Speed 7 mph (SSW)    
Max Wind Speed 15 mph    
Max Gust Speed 20 mph    
Visibility 10 miles    
Events      
Averages and records for this station are not official NWS values.
T = Trace of Precipitation, MM = Missing Value Source: NWS Daily Summary

Daily Weather History Graph

Daily Weather History Graph

Search for Another Location

Airport or City:

Trip Planner

Search our weather history database for the weather conditions in past years. The results will help you decide how hot, cold, wet, or windy it might be!

Date:

Astronomy

Nov. 27, 2012 Rise Set
Actual Time 7:16 AM CST 4:48 PM CST
Civil Twilight 6:46 AM CST 5:18 PM CST
Nautical Twilight 6:12 AM CST 5:52 PM CST
Astronomical Twilight 5:39 AM CST 6:25 PM CST
Moon 4:20 PM CST (11/27) 6:22 AM CST (11/27)
Length of Visible Light 10h 32m
Length of Day
9h 31m
Waxing Gibbous, 99% of the Moon is Illuminated
Nov 27
Waxing Gibbous
Nov 28
Full
Dec 6
Last Quarter
Dec 13
New
Dec 19
First Quarter

Hourly Weather History & Observations

Time (CST) Temp. Windchill Dew Point Humidity Pressure Visibility Wind Dir Wind Speed Gust Speed Precip Events Conditions
12:15 AM 14.5 °F 8.8 °F 7.7 °F 74% 30.43 in 10.0 mi West 3.5 mph - N/A   Clear
12:35 AM 15.6 °F 10.0 °F 8.1 °F 72% 30.41 in 10.0 mi WSW 3.5 mph - N/A   Clear
12:55 AM 15.1 °F 9.4 °F 8.1 °F 74% 30.42 in 10.0 mi WSW 3.5 mph - N/A   Clear
1:15 AM 15.3 °F 7.9 °F 8.4 °F 74% 30.41 in 10.0 mi WSW 4.6 mph - N/A   Clear
1:35 AM 13.8 °F 6.2 °F 8.2 °F 78% 30.41 in 10.0 mi WSW 4.6 mph - N/A   Clear
1:55 AM 14.0 °F 6.5 °F 8.4 °F 78% 30.41 in 10.0 mi West 4.6 mph - N/A   Clear
2:15 AM 14.4 °F 8.6 °F 8.4 °F 77% 30.41 in 10.0 mi West 3.5 mph - N/A   Clear
2:35 AM 13.3 °F 5.6 °F 8.1 °F 80% 30.41 in 10.0 mi WSW 4.6 mph - N/A   Clear
2:55 AM 14.0 °F 6.5 °F 8.4 °F 78% 30.41 in 10.0 mi West 4.6 mph - N/A   Clear
3:15 AM 12.9 °F 3.8 °F 7.7 °F 80% 30.42 in 10.0 mi West 5.8 mph - N/A   Clear
3:35 AM 13.6 °F 6.0 °F 7.9 °F 78% 30.41 in 10.0 mi West 4.6 mph - N/A   Clear
3:55 AM 12.9 °F 5.2 °F 7.5 °F 79% 30.40 in 10.0 mi West 4.6 mph - N/A   Clear
4:15 AM 14.2 °F 6.7 °F 7.9 °F 76% 30.40 in 10.0 mi WSW 4.6 mph - N/A   Clear
4:35 AM 12.7 °F 3.6 °F 7.7 °F 80% 30.40 in 10.0 mi WSW 5.8 mph - N/A   Clear
4:55 AM 12.7 °F 5.0 °F 7.7 °F 80% 30.40 in 10.0 mi SW 4.6 mph - N/A   Clear
5:15 AM 12.6 °F 4.8 °F 7.3 °F 80% 30.40 in 10.0 mi SW 4.6 mph - N/A   Clear
5:55 AM 12.0 °F 2.7 °F 6.8 °F 80% 30.39 in 10.0 mi SSW 5.8 mph - N/A   Clear
6:35 AM 12.6 °F 3.4 °F 7.5 °F 80% 30.38 in 10.0 mi SW 5.8 mph - N/A   Clear
6:55 AM 12.0 °F 2.7 °F 7.2 °F 81% 30.38 in 10.0 mi SSW 5.8 mph - N/A   Clear
7:15 AM 11.8 °F 5.7 °F 7.0 °F 81% 30.38 in 10.0 mi SSW 3.5 mph - N/A   Clear
7:35 AM 12.9 °F 3.8 °F 8.1 °F 81% 30.38 in 10.0 mi SW 5.8 mph - N/A   Clear
7:55 AM 15.3 °F 7.9 °F 9.9 °F 79% 30.38 in 7.0 mi SSW 4.6 mph - N/A   Clear
8:15 AM 18.0 °F 9.8 °F 11.5 °F 76% 30.38 in 10.0 mi SSW 5.8 mph - N/A   Clear
8:35 AM 20.3 °F 11.5 °F 12.9 °F 73% 30.38 in 10.0 mi SSW 6.9 mph - N/A   Clear
8:55 AM 22.3 °F 14.9 °F 14.0 °F 71% 30.38 in 10.0 mi South 5.8 mph - N/A   Clear
9:15 AM 23.9 °F 15.8 °F 14.7 °F 68% 30.38 in 10.0 mi South 6.9 mph - N/A   Clear
9:35 AM 25.5 °F 16.2 °F 14.7 °F 64% 30.38 in 10.0 mi South 9.2 mph - N/A   Clear
9:55 AM 27.1 °F 17.5 °F 14.4 °F 59% 30.38 in 10.0 mi South 10.4 mph - N/A   Clear
10:15 AM 28.0 °F 17.5 °F 13.3 °F 54% 30.38 in 10.0 mi SSW 12.7 mph - N/A   Clear
10:35 AM 29.5 °F 19.9 °F 14.5 °F 54% 30.38 in 10.0 mi South 11.5 mph - N/A   Clear
10:55 AM 29.3 °F 18.6 °F 13.3 °F 51% 30.36 in 10.0 mi SSW 13.8 mph - N/A   Clear
11:15 AM 30.2 °F 20.8 °F 13.6 °F 50% 30.35 in 10.0 mi SSW 11.5 mph - N/A   Clear
11:35 AM 31.1 °F 21.4 °F 14.4 °F 50% 30.34 in 10.0 mi SSW 12.7 mph - N/A   Clear
11:55 AM 32.0 °F 23.6 °F 14.5 °F 49% 30.32 in 10.0 mi South 10.4 mph - N/A   Clear
12:15 PM 32.4 °F 24.6 °F 14.5 °F 48% 30.31 in 10.0 mi South 9.2 mph - N/A   Clear
12:35 PM 34.0 °F 25.0 °F 14.2 °F 44% 30.30 in 10.0 mi South 12.7 mph 16.1 mph N/A   Clear
12:55 PM 34.7 °F 26.4 °F 13.3 °F 41% 30.28 in 10.0 mi South 11.5 mph - N/A   Clear
1:15 PM 36.0 °F 28.5 °F 12.4 °F 38% 30.28 in 10.0 mi South 10.4 mph 19.6 mph N/A   Clear
1:35 PM 36.3 °F 28.0 °F 11.8 °F 36% 30.25 in 10.0 mi South 12.7 mph - N/A   Clear
1:55 PM 36.5 °F 27.4 °F 11.7 °F 36% 30.24 in 10.0 mi South 15.0 mph - N/A   Clear
2:15 PM 37.0 °F 28.5 °F 11.8 °F 35% 30.23 in 10.0 mi South 13.8 mph - N/A   Clear
2:35 PM 36.9 °F 28.2 °F 11.8 °F 36% 30.22 in 10.0 mi South 13.8 mph - N/A   Clear
2:55 PM 36.1 °F 28.2 °F 12.0 °F 37% 30.22 in 10.0 mi South 11.5 mph 19.6 mph N/A   Clear
3:15 PM 36.7 °F 28.4 °F 12.4 °F 37% 30.22 in 10.0 mi South 12.7 mph - N/A   Clear
3:35 PM 35.6 °F 26.6 °F 12.6 °F 39% 30.22 in 10.0 mi South 13.8 mph 18.4 mph N/A   Clear
3:55 PM 35.2 °F 28.1 °F 12.9 °F 40% 30.21 in 10.0 mi South 9.2 mph - N/A   Clear
4:15 PM 34.7 °F 26.4 °F 13.5 °F 42% 30.21 in 10.0 mi South 11.5 mph - N/A   Clear
4:35 PM 34.0 °F 26.0 °F 12.9 °F 42% 30.21 in 10.0 mi South 10.4 mph - N/A   Clear
4:55 PM 33.4 °F 25.4 °F 13.1 °F 43% 30.20 in 10.0 mi South 10.4 mph - N/A   Clear
5:15 PM 32.4 °F 25.3 °F 13.5 °F 46% 30.20 in 10.0 mi South 8.1 mph - N/A   Clear
6:15 PM 28.8 °F 22.6 °F 13.8 °F 54% 30.23 in 10.0 mi South 5.8 mph - N/A   Clear
6:35 PM 28.6 °F 21.5 °F 13.6 °F 54% 30.23 in 10.0 mi SSW 6.9 mph - N/A   Clear
6:55 PM 27.3 °F 19.9 °F 14.4 °F 58% 30.24 in 10.0 mi South 6.9 mph - N/A   Clear
7:15 PM 27.9 °F 20.6 °F 14.5 °F 57% 30.23 in 10.0 mi South 6.9 mph - N/A   Clear
7:35 PM 28.0 °F 20.8 °F 14.9 °F 58% 30.23 in 10.0 mi South 6.9 mph - N/A   Clear
7:55 PM 28.4 °F 20.4 °F 15.4 °F 58% 30.23 in 10.0 mi South 8.1 mph - N/A   Clear
8:15 PM 28.0 °F 20.0 °F 15.8 °F 60% 30.23 in 10.0 mi SSW 8.1 mph - N/A   Clear
8:35 PM 28.0 °F 20.0 °F 15.8 °F 60% 30.23 in 10.0 mi SSW 8.1 mph - N/A   Clear
8:55 PM 28.4 °F 20.4 °F 16.2 °F 60% 30.23 in 10.0 mi SSW 8.1 mph - N/A   Clear
9:15 PM 28.9 °F 20.4 °F 16.0 °F 58% 30.23 in 10.0 mi SSW 9.2 mph - N/A   Clear
9:35 PM 29.5 °F 21.1 °F 16.0 °F 57% 30.24 in 10.0 mi SSW 9.2 mph - N/A   Clear
9:55 PM 29.3 °F 22.3 °F 16.0 °F 58% 30.24 in 10.0 mi SW 6.9 mph - N/A   Clear
10:15 PM 28.4 °F 20.4 °F 16.2 °F 60% 30.24 in 10.0 mi SW 8.1 mph - N/A   Clear
10:35 PM 27.5 °F 20.2 °F 16.2 °F 62% 30.25 in 10.0 mi SW 6.9 mph - N/A   Clear
10:55 PM 27.5 °F 19.3 °F 16.3 °F 63% 30.25 in 10.0 mi SW 8.1 mph - N/A   Clear
11:15 PM 26.8 °F 19.3 °F 16.2 °F 64% 30.26 in 10.0 mi West 6.9 mph - N/A   Clear
11:55 PM 27.1 °F 20.7 °F 16.3 °F 64% 30.28 in 10.0 mi WSW 5.8 mph - N/A   Clear